Overview Statistics Trail Chart Weather Telemetry Raw packets
 

This is the latest recevied weather packets stored in our database for station/object W5CMS-13. If no packets are shown the sender has not sent any weather packets the latest 10 day(s).

<< 49 50 51 52 53 54 55 >>
Time Temp. Humidity Pressure Rain* Wind** Luminosity Snow
1787861717 36.67° C 47% 1013.8 hPa 0 mm - - -
1787861123 36.67° C 47% 1013.9 hPa 0 mm - - -
1787860518 36.11° C 47% 1014 hPa 0 mm - - -
1787859917 36.67° C 47% 1014 hPa 0 mm - - -
1787859317 37.22° C 47% 1014.1 hPa 0 mm - - -
1787858724 36.67° C 48% 1014.2 hPa 0 mm - - -
1787858120 36.67° C 47% 1014.3 hPa 0 mm - - -
1787857517 36.11° C 48% 1014.5 hPa 0 mm - - -
1787856917 36.11° C 48% 1014.6 hPa 0 mm - - -
1787856317 36.11° C 49% 1014.8 hPa 0 mm - - -
1787855717 36.11° C 51% 1014.9 hPa 0 mm - - -
1787855118 36.67° C 52% 1015 hPa 0 mm - - -
1787854519 35.56° C 54% 1015.1 hPa 0 mm - - -
1787853917 35° C 53% 1015 hPa 0 mm - - -
1787853317 35° C 56% 1015.1 hPa 0 mm - - -
1787852717 34.44° C 56% 1015.1 hPa 0 mm - - -
1787852117 34.44° C 57% 1015.4 hPa 0 mm - - -
1787851518 34.44° C 58% 1015.4 hPa 0 mm - - -
1787850917 33.89° C 59% 1015.5 hPa 0 mm - - -
1787850318 33.33° C 60% 1015.4 hPa 0 mm - - -
1787849717 33.89° C 61% 1015.5 hPa 0 mm - - -
1787849117 32.78° C 63% 1015.7 hPa 0 mm - - -
1787848518 32.22° C 65% 1015.5 hPa 0 mm - - -
1787847918 32.22° C 66% 1015.6 hPa 0 mm - - -
1787847317 31.67° C 68% 1015.6 hPa 0 mm - - -

* Rain latest hour (hover to see other rain measurements)
** Current wind speed in m/s (hover to see current wind gust speed)